Time,TemperatureF,DewpointF,PressureIn,WindDirection,WindDirectionDegrees,WindSpeedMPH,WindSpeedGustMPH,Humidity,HourlyPrecipIn,Conditions,Clouds,dailyrainin,SoftwareType,DateUTC
2013-07-02 00:04:00,82.0,74.4,0.00,North,0,1.6,0.0,73,0.00,,,-99.99,Homeseer,2013-07-02 04:04:00,
2013-07-02 00:14:00,82.2,75.6,0.00,South,180,2.2,0.0,76,0.00,,,-99.99,Homeseer,2013-07-02 04:14:00,
2013-07-02 00:24:00,82.2,75.2,0.00,SW,225,1.1,0.0,75,0.00,,,-99.99,Homeseer,2013-07-02 04:24:00,
2013-07-02 00:34:00,82.4,75.8,0.00,North,0,0.9,0.0,76,0.00,,,-99.99,Homeseer,2013-07-02 04:34:00,
2013-07-02 00:44:00,82.2,77.4,0.00,SSE,157,2.2,2.2,82,0.00,,,-99.99,Homeseer,2013-07-02 04:44:00,
2013-07-02 00:54:00,82.0,76.3,0.00,SW,225,2.7,2.7,79,0.00,,,-99.99,Homeseer,2013-07-02 04:54:00,
2013-07-02 01:04:00,82.0,76.3,0.00,SE,135,1.3,1.3,79,0.00,,,-99.99,Homeseer,2013-07-02 05:04:00,
2013-07-02 01:14:00,82.0,76.0,0.00,SE,135,2.9,3.6,78,0.00,,,-99.99,Homeseer,2013-07-02 05:14:00,
2013-07-02 01:24:00,82.0,76.3,0.00,North,0,3.8,5.6,79,0.00,,,-99.99,Homeseer,2013-07-02 05:24:00,
2013-07-02 01:34:00,82.0,76.3,0.00,South,180,1.6,2.7,79,0.00,,,-99.99,Homeseer,2013-07-02 05:34:00,
2013-07-02 01:44:00,82.0,77.2,0.00,SSE,157,2.9,2.9,82,0.00,,,-99.99,Homeseer,2013-07-02 05:44:00,
2013-07-02 01:54:00,81.9,77.7,0.00,East,90,4.3,4.3,84,0.00,,,-99.99,Homeseer,2013-07-02 05:54:00,
2013-07-02 02:04:00,82.0,77.8,0.00,SSE,157,3.4,3.4,84,0.00,,,-99.99,Homeseer,2013-07-02 06:04:00,
2013-07-02 02:14:00,82.0,77.8,0.00,South,180,2.7,2.7,84,0.00,,,-99.99,Homeseer,2013-07-02 06:14:00,
2013-07-02 02:24:00,82.0,78.0,0.00,North,0,2.9,2.9,85,0.00,,,-99.99,Homeseer,2013-07-02 06:24:00,
2013-07-02 02:34:00,82.0,78.3,0.00,SSE,157,3.1,4.3,86,0.00,,,-99.99,Homeseer,2013-07-02 06:34:00,
2013-07-02 02:44:00,81.7,78.6,0.00,South,180,3.4,5.6,88,0.00,,,-99.99,Homeseer,2013-07-02 06:44:00,
2013-07-02 02:54:00,81.1,77.4,0.00,North,0,2.0,3.4,86,0.00,,,-99.99,Homeseer,2013-07-02 06:54:00,
2013-07-02 03:04:00,80.8,76.9,0.00,North,0,2.0,4.0,85,0.00,,,-99.99,Homeseer,2013-07-02 07:04:00,
2013-07-02 03:14:00,80.6,76.1,0.00,WSW,247,1.6,3.1,83,0.00,,,-99.99,Homeseer,2013-07-02 07:14:00,
2013-07-02 03:24:00,80.6,76.1,0.00,North,0,1.1,1.3,83,0.00,,,-99.99,Homeseer,2013-07-02 07:24:00,
2013-07-02 03:34:00,80.4,75.9,0.00,South,180,0.0,1.1,83,0.00,,,-99.99,Homeseer,2013-07-02 07:34:00,
2013-07-02 03:44:00,80.4,76.5,0.00,WNW,297,0.0,0.0,85,0.00,,,-99.99,Homeseer,2013-07-02 07:44:00,
2013-07-02 03:54:00,80.8,77.1,0.00,South,180,1.1,2.5,86,0.00,,,-99.99,Homeseer,2013-07-02 07:54:00,
2013-07-02 04:04:00,80.6,77.5,0.00,SSE,157,2.0,0.0,88,0.00,,,-99.99,Homeseer,2013-07-02 08:04:00,
2013-07-02 04:14:00,80.6,77.8,0.00,South,180,2.2,2.5,89,0.00,,,-99.99,Homeseer,2013-07-02 08:14:00,
2013-07-02 04:24:00,81.0,78.2,0.00,North,0,3.1,3.1,89,0.00,,,-99.99,Homeseer,2013-07-02 08:24:00,
2013-07-02 04:34:00,81.0,77.9,0.00,South,180,3.4,4.9,88,0.00,,,-99.99,Homeseer,2013-07-02 08:34:00,
2013-07-02 04:44:00,81.1,78.0,0.00,North,0,4.7,4.7,88,0.00,,,-99.99,Homeseer,2013-07-02 08:44:00,
2013-07-02 04:54:00,81.1,78.0,0.00,SSE,157,3.4,3.4,88,0.00,,,-99.99,Homeseer,2013-07-02 08:54:00,
2013-07-02 05:04:00,81.3,78.2,0.00,North,0,4.3,4.3,88,0.00,,,-99.99,Homeseer,2013-07-02 09:04:00,
2013-07-02 05:14:00,81.3,77.9,0.00,ESE,112,4.5,4.5,87,0.00,,,-99.99,Homeseer,2013-07-02 09:14:00,
2013-07-02 05:24:00,81.5,78.1,0.00,SSE,157,4.7,4.7,87,0.00,,,-99.99,Homeseer,2013-07-02 09:24:00,
2013-07-02 05:34:00,81.5,78.4,0.00,North,0,6.9,6.9,88,0.00,,,-99.99,Homeseer,2013-07-02 09:34:00,
2013-07-02 05:44:00,81.5,77.8,0.00,North,0,6.5,6.5,86,0.00,,,-99.99,Homeseer,2013-07-02 09:44:00,
2013-07-02 05:54:00,81.5,78.1,0.00,SE,135,5.4,6.5,87,0.00,,,-99.99,Homeseer,2013-07-02 09:54:00,
2013-07-02 06:04:00,81.5,77.8,0.00,SSE,157,4.0,4.0,86,0.00,,,-99.99,Homeseer,2013-07-02 10:04:00,
2013-07-02 06:14:00,81.5,78.1,0.00,South,180,2.7,2.9,87,0.00,,,-99.99,Homeseer,2013-07-02 10:14:00,
2013-07-02 06:24:00,81.5,77.8,0.00,North,0,5.8,5.8,86,0.00,,,-99.99,Homeseer,2013-07-02 10:24:00,
2013-07-02 06:34:00,81.5,77.6,0.00,North,0,2.2,2.2,85,0.00,,,-99.99,Homeseer,2013-07-02 10:34:00,
2013-07-02 06:44:00,81.5,78.1,0.00,SSE,157,2.9,3.4,87,0.00,,,-99.99,Homeseer,2013-07-02 10:44:00,
2013-07-02 06:54:00,81.7,78.3,0.00,North,0,3.8,3.8,87,0.00,,,-99.99,Homeseer,2013-07-02 10:54:00,
2013-07-02 07:04:00,81.9,78.5,0.00,North,0,4.0,4.0,87,0.00,,,-99.99,Homeseer,2013-07-02 11:04:00,
2013-07-02 07:14:00,82.0,78.0,0.00,South,180,3.4,3.4,85,0.00,,,-99.99,Homeseer,2013-07-02 11:14:00,
2013-07-02 07:24:00,82.2,78.5,0.00,SE,135,3.6,4.0,86,0.00,,,-99.99,Homeseer,2013-07-02 11:24:00,
2013-07-02 07:34:00,82.6,78.6,0.00,ESE,112,1.6,2.0,85,0.00,,,-99.99,Homeseer,2013-07-02 11:34:00,
2013-07-02 07:44:00,82.9,78.3,0.00,South,180,2.5,2.5,83,0.00,,,-99.99,Homeseer,2013-07-02 11:44:00,
2013-07-02 07:54:00,83.3,78.7,0.00,North,0,3.8,3.8,83,0.00,,,-99.99,Homeseer,2013-07-02 11:54:00,
2013-07-02 08:04:00,83.7,78.5,0.00,SSE,157,3.8,3.8,81,0.00,,,-99.99,Homeseer,2013-07-02 12:04:00,
2013-07-02 08:14:00,84.6,78.8,0.00,North,0,3.1,3.6,79,0.00,,,-99.99,Homeseer,2013-07-02 12:14:00,
2013-07-02 08:24:00,85.5,78.7,0.00,SE,135,4.0,7.2,76,0.00,,,-99.99,Homeseer,2013-07-02 12:24:00,
2013-07-02 08:34:00,85.5,77.4,0.00,North,0,3.6,5.4,72,0.00,,,-99.99,Homeseer,2013-07-02 12:34:00,
2013-07-02 08:44:00,85.5,77.4,0.00,West,270,4.5,4.5,72,0.00,,,-99.99,Homeseer,2013-07-02 12:44:00,
2013-07-02 08:54:00,85.5,77.4,0.00,SSE,157,4.3,4.3,72,0.00,,,-99.99,Homeseer,2013-07-02 12:54:00,
2013-07-02 09:04:00,86.0,76.2,0.00,SSE,157,3.6,0.0,67,0.00,,,-99.99,Homeseer,2013-07-02 13:04:00,
2013-07-02 09:14:00,86.4,77.3,0.00,SSE,157,1.6,1.6,69,0.00,,,-99.99,Homeseer,2013-07-02 13:14:00,
2013-07-02 09:24:00,86.2,76.4,0.00,SSE,157,3.6,3.6,67,0.00,,,-99.99,Homeseer,2013-07-02 13:24:00,
2013-07-02 09:34:00,85.8,76.0,0.00,ESE,112,3.6,3.6,67,0.00,,,-99.99,Homeseer,2013-07-02 13:34:00,
2013-07-02 09:44:00,85.6,76.2,0.00,SSE,157,4.3,4.3,68,0.00,,,-99.99,Homeseer,2013-07-02 13:44:00,
2013-07-02 09:54:00,85.8,76.0,0.00,SE,135,4.5,4.5,67,0.00,,,-99.99,Homeseer,2013-07-02 13:54:00,
2013-07-02 10:04:00,87.1,76.1,0.00,SSE,157,3.6,3.6,64,0.00,,,-99.99,Homeseer,2013-07-02 14:04:00,
2013-07-02 10:14:00,86.4,74.7,0.00,North,0,6.5,6.5,62,0.00,,,-99.99,Homeseer,2013-07-02 14:14:00,
2013-07-02 10:24:00,86.9,75.9,0.00,South,180,2.2,3.6,64,0.00,,,-99.99,Homeseer,2013-07-02 14:24:00,
2013-07-02 10:34:00,88.0,76.2,0.00,SSE,157,2.9,2.9,62,0.00,,,-99.99,Homeseer,2013-07-02 14:34:00,
2013-07-02 10:44:00,88.3,75.7,0.00,SSE,157,5.4,5.4,60,0.00,,,-99.99,Homeseer,2013-07-02 14:44:00,
2013-07-02 10:54:00,89.1,75.2,0.00,South,180,2.5,3.6,57,0.00,,,-99.99,Homeseer,2013-07-02 14:54:00,
2013-07-02 11:04:00,89.4,75.9,0.00,North,0,2.7,4.9,58,0.00,,,-99.99,Homeseer,2013-07-02 15:04:00,
2013-07-02 11:14:00,90.1,75.3,0.00,SE,135,2.7,2.7,55,0.00,,,-99.99,Homeseer,2013-07-02 15:14:00,
2013-07-02 11:24:00,90.5,74.8,0.00,SSE,157,2.9,4.3,53,0.00,,,-99.99,Homeseer,2013-07-02 15:24:00,
2013-07-02 11:34:00,91.0,74.8,0.00,SSE,157,3.8,8.1,52,0.00,,,-99.99,Homeseer,2013-07-02 15:34:00,
2013-07-02 11:44:00,91.6,74.9,0.00,North,0,4.9,4.9,51,0.00,,,-99.99,Homeseer,2013-07-02 15:44:00,
2013-07-02 11:54:00,91.8,73.1,0.00,WSW,247,2.7,2.9,47,0.00,,,-99.99,Homeseer,2013-07-02 15:54:00,
2013-07-02 12:04:00,91.2,72.1,0.00,SSE,157,3.6,3.6,46,0.00,,,-99.99,Homeseer,2013-07-02 16:04:00,
2013-07-02 12:14:00,91.2,71.1,0.00,South,180,3.8,4.7,44,0.00,,,-99.99,Homeseer,2013-07-02 16:14:00,
2013-07-02 12:24:00,89.8,70.3,0.00,North,0,4.9,4.9,45,0.00,,,-99.99,Homeseer,2013-07-02 16:24:00,
2013-07-02 12:34:00,89.4,71.5,0.00,North,0,2.9,2.9,48,0.00,,,-99.99,Homeseer,2013-07-02 16:34:00,
2013-07-02 12:44:00,89.1,72.2,0.00,SSE,157,3.1,5.4,50,0.00,,,-99.99,Homeseer,2013-07-02 16:44:00,
2013-07-02 12:54:00,88.9,72.9,0.00,South,180,3.1,3.8,52,0.00,,,-99.99,Homeseer,2013-07-02 16:54:00,
2013-07-02 13:04:00,88.7,73.1,0.00,SSE,157,4.3,4.3,53,0.00,,,-99.99,Homeseer,2013-07-02 17:04:00,
2013-07-02 13:14:00,88.2,72.7,0.00,WSW,247,2.2,2.2,53,0.00,,,-99.99,Homeseer,2013-07-02 17:14:00,
2013-07-02 13:24:00,87.6,72.1,0.00,South,180,4.7,4.7,53,0.00,,,-99.99,Homeseer,2013-07-02 17:24:00,
2013-07-02 13:34:00,87.3,71.4,0.00,South,180,2.7,3.8,52,0.00,,,-99.99,Homeseer,2013-07-02 17:34:00,
2013-07-02 13:44:00,87.6,72.6,0.00,North,0,3.6,4.0,54,0.00,,,-99.99,Homeseer,2013-07-02 17:44:00,
2013-07-02 13:54:00,87.8,72.3,0.00,North,0,2.2,4.9,53,0.00,,,-99.99,Homeseer,2013-07-02 17:54:00,
2013-07-02 14:04:00,88.3,71.9,0.00,South,180,5.6,5.6,51,0.00,,,-99.99,Homeseer,2013-07-02 18:04:00,
2013-07-02 14:14:00,88.7,71.8,0.00,ESE,112,2.2,2.2,50,0.00,,,-99.99,Homeseer,2013-07-02 18:14:00,
2013-07-02 14:24:00,88.7,71.8,0.00,SSE,157,3.1,4.0,50,0.00,,,-99.99,Homeseer,2013-07-02 18:24:00,
2013-07-02 14:34:00,88.7,71.8,0.00,North,0,3.8,6.5,50,0.00,,,-99.99,Homeseer,2013-07-02 18:34:00,
2013-07-02 14:44:00,88.7,71.8,0.00,South,180,3.1,3.1,50,0.00,,,-99.99,Homeseer,2013-07-02 18:44:00,
2013-07-02 14:54:00,88.7,71.8,0.00,North,0,4.0,4.0,50,0.00,,,-99.99,Homeseer,2013-07-02 18:54:00,
2013-07-02 15:04:00,88.7,71.8,0.00,North,0,2.2,3.1,50,0.00,,,-99.99,Homeseer,2013-07-02 19:04:00,
2013-07-02 15:14:00,0.0,0.0,0.00,SE,135,2.2,4.3,0,0.00,,,-99.99,Homeseer,2013-07-02 19:14:00,
2013-07-02 15:24:00,90.3,71.8,0.00,South,180,3.6,3.6,47,0.00,,,-99.99,Homeseer,2013-07-02 19:24:00,
2013-07-02 15:34:00,90.9,72.3,0.00,WSW,247,3.1,3.1,47,0.00,,,-99.99,Homeseer,2013-07-02 19:34:00,
2013-07-02 15:44:00,90.5,71.0,0.00,North,0,5.4,5.4,45,0.00,,,-99.99,Homeseer,2013-07-02 19:44:00,
2013-07-02 15:54:00,90.5,71.0,0.00,WSW,247,3.8,5.8,45,0.00,,,-99.99,Homeseer,2013-07-02 19:54:00,
2013-07-02 16:04:00,90.9,69.7,0.00,SSE,157,3.4,3.6,42,0.00,,,-99.99,Homeseer,2013-07-02 20:04:00,
2013-07-02 16:14:00,91.2,71.6,0.00,South,180,1.1,1.6,45,0.00,,,-99.99,Homeseer,2013-07-02 20:14:00,
2013-07-02 16:24:00,91.0,71.4,0.00,ESE,112,4.9,4.9,45,0.00,,,-99.99,Homeseer,2013-07-02 20:24:00,
2013-07-02 16:34:00,90.7,70.1,0.00,North,0,4.5,6.3,43,0.00,,,-99.99,Homeseer,2013-07-02 20:34:00,
2013-07-02 16:44:00,89.6,70.2,0.00,WSW,247,4.0,4.0,45,0.00,,,-99.99,Homeseer,2013-07-02 20:44:00,
2013-07-02 16:54:00,89.2,70.3,0.00,North,0,3.4,3.4,46,0.00,,,-99.99,Homeseer,2013-07-02 20:54:00,
2013-07-02 17:04:00,88.7,69.9,0.00,North,0,1.6,1.6,46,0.00,,,-99.99,Homeseer,2013-07-02 21:04:00,
2013-07-02 17:14:00,88.2,69.4,0.00,ESE,112,1.6,2.2,46,0.00,,,-99.99,Homeseer,2013-07-02 21:14:00,
2013-07-02 17:24:00,87.6,68.9,0.00,North,0,4.0,4.0,46,0.00,,,-99.99,Homeseer,2013-07-02 21:24:00,
2013-07-02 17:34:00,87.6,68.9,0.00,North,0,3.4,3.4,46,0.00,,,-99.99,Homeseer,2013-07-02 21:34:00,
2013-07-02 17:44:00,87.3,69.1,0.00,South,180,0.9,0.0,47,0.00,,,-99.99,Homeseer,2013-07-02 21:44:00,
2013-07-02 17:54:00,87.1,68.9,0.00,SSE,157,1.1,0.0,47,0.00,,,-99.99,Homeseer,2013-07-02 21:54:00,
2013-07-02 18:04:00,86.7,68.6,0.00,South,180,2.2,4.0,47,0.00,,,-99.99,Homeseer,2013-07-02 22:04:00,
2013-07-02 18:14:00,86.2,68.6,0.00,North,0,3.4,3.4,48,0.00,,,-99.99,Homeseer,2013-07-02 22:14:00,
2013-07-02 18:24:00,85.6,68.5,0.00,North,0,3.6,3.6,49,0.00,,,-99.99,Homeseer,2013-07-02 22:24:00,
2013-07-02 18:34:00,85.5,68.5,0.00,South,180,2.5,2.5,49,0.00,,,-99.99,Homeseer,2013-07-02 22:34:00,
2013-07-02 18:44:00,85.1,68.5,0.00,WSW,247,2.7,3.6,50,0.00,,,-99.99,Homeseer,2013-07-02 22:44:00,
2013-07-02 18:54:00,84.9,67.9,0.00,SE,135,3.4,0.0,49,0.00,,,-99.99,Homeseer,2013-07-02 22:54:00,
2013-07-02 19:14:00,84.7,69.5,0.00,WNW,297,0.0,0.0,53,0.00,,,-99.99,Homeseer,2013-07-02 23:14:00,
2013-07-02 19:24:00,84.6,69.8,0.00,ENE,67,1.3,2.2,54,0.00,,,-99.99,Homeseer,2013-07-02 23:24:00,
2013-07-02 19:34:00,84.4,69.7,0.00,WSW,247,1.3,0.0,54,0.00,,,-99.99,Homeseer,2013-07-02 23:34:00,
2013-07-02 19:44:00,84.4,69.7,0.00,North,0,0.9,0.0,54,0.00,,,-99.99,Homeseer,2013-07-02 23:44:00,
2013-07-02 19:54:00,84.4,69.7,0.00,ESE,112,0.0,0.0,54,0.00,,,-99.99,Homeseer,2013-07-02 23:54:00,
2013-07-02 20:04:00,84.0,68.9,0.00,North,0,0.0,0.0,53,0.00,,,-99.99,Homeseer,2013-07-03 00:04:00,
2013-07-02 20:14:00,84.0,68.9,0.00,SSE,157,2.2,2.2,53,0.00,,,-99.99,Homeseer,2013-07-03 00:14:00,
2013-07-02 20:24:00,83.8,69.5,0.00,North,0,1.1,2.2,55,0.00,,,-99.99,Homeseer,2013-07-03 00:24:00,
2013-07-02 20:34:00,83.8,70.4,0.00,North,0,1.1,0.0,57,0.00,,,-99.99,Homeseer,2013-07-03 00:34:00,
2013-07-02 20:44:00,83.7,70.7,0.00,North,0,0.9,0.0,58,0.00,,,-99.99,Homeseer,2013-07-03 00:44:00,
2013-07-02 20:54:00,83.5,70.9,0.00,ESE,112,1.3,0.0,59,0.00,,,-99.99,Homeseer,2013-07-03 00:54:00,
2013-07-02 21:04:00,83.3,70.7,0.00,North,0,0.0,0.0,59,0.00,,,-99.99,Homeseer,2013-07-03 01:04:00,
2013-07-02 21:14:00,83.1,70.5,0.00,North,0,0.9,3.6,59,0.00,,,-99.99,Homeseer,2013-07-03 01:14:00,
2013-07-02 21:24:00,82.4,70.2,0.00,North,0,4.3,5.8,60,0.00,,,-99.99,Homeseer,2013-07-03 01:24:00,
2013-07-02 21:34:00,81.9,70.5,0.00,North,0,2.9,2.9,62,0.00,,,-99.99,Homeseer,2013-07-03 01:34:00,
2013-07-02 21:44:00,81.7,70.7,0.00,North,0,2.9,2.9,63,0.00,,,-99.99,Homeseer,2013-07-03 01:44:00,
2013-07-02 22:04:00,81.7,70.7,0.00,North,0,2.0,2.2,63,0.00,,,-99.99,Homeseer,2013-07-03 02:04:00,
2013-07-02 22:14:00,81.7,70.7,0.00,WNW,297,0.0,0.0,63,0.00,,,-99.99,Homeseer,2013-07-03 02:14:00,
2013-07-02 22:24:00,81.3,70.3,0.00,WNW,297,1.6,2.7,63,0.00,,,-99.99,Homeseer,2013-07-03 02:24:00,
2013-07-02 22:44:00,80.8,70.9,0.00,WNW,297,0.9,0.9,66,0.00,,,-99.99,Homeseer,2013-07-03 02:44:00,
2013-07-02 22:54:00,80.6,72.1,0.00,North,0,1.1,1.6,70,0.00,,,-99.99,Homeseer,2013-07-03 02:54:00,
2013-07-02 23:04:00,80.4,72.6,0.00,North,0,0.0,0.0,72,0.00,,,-99.99,Homeseer,2013-07-03 03:04:00,
2013-07-02 23:24:00,80.6,72.1,0.00,North,0,0.0,0.0,70,0.00,,,-99.99,Homeseer,2013-07-03 03:24:00,
2013-07-02 23:34:00,80.6,71.8,0.00,North,0,0.0,0.0,69,0.00,,,-99.99,Homeseer,2013-07-03 03:34:00,
2013-07-02 23:44:00,80.8,72.3,0.00,ESE,112,0.0,0.0,70,0.00,,,-99.99,Homeseer,2013-07-03 03:44:00,
2013-07-02 23:54:00,80.8,72.3,0.00,South,180,0.0,0.0,70,0.00,,,-99.99,Homeseer,2013-07-03 03:54:00,